sat.trackr.live / text

‹ back to catalog

STARLINK-2531

NORAD 48483 · 2021-040BH

PAYLOAD ACTIVE UNKNOWN

§ Identity

Operator
Country
US
Launch date
2021-05-09
Launch site
AFETR
Launch vehicle
Mass (kg)
RCS (m²)

Purposes: comms

External: N2YO · Heavens-Above · Gunter

§ Orbital elements

Epoch: 2026-05-25T03:49:02.889408Z

Period
94.01 min
Inclination
53.1596°
Eccentricity
0.0001229
Mean motion
15.31698596 rev/d
Perigee alt
469.9 km
Apogee alt
471.6 km
Semi-major
6,848.9 km
B*
3.6163e-5
RAAN
198.4266°
Arg perigee
79.6793°
Mean anomaly
280.4346°
Rev number
27,817

§ Raw data

STARLINK-25311 48483U 21040BH  26145.15906122  .00000757  00000+0  36163-4 0  99992 48483  53.1596 198.4266 0001229  79.6793 280.4346 15.31698596278174

JSON: /api/v1/satellites/48483 · /tle

For live sub-satellite position, see the globe view (requires WebGL).

§ Visibility from observer

Set your observer location to see the next 7 days of passes ≥ 10°. The values pass through the URL so the page stays shareable.

No JS? Fill the form by hand. The geolocation button needs JavaScript.